Flag for Saint Kitts and Nevis Weather past 2 weeks in Basseterre, Saint Kitts and Nevis

Now
77 °F

Passing clouds.


Feels Like: 79 °F
Forecast: 77 / 80 °F
Wind: 17 mph from East

Location: Golden Rock

Current Time: Mar 7, 2015 at 12:24:24 AM

Latest Report: Mar 6, 2015 at 11:00 PM


Visibility: N/A

Pressure: 30.09 "Hg

Humidity: 74%

Dew point: 68 °F

Location of BasseterreLocation

Historic Weather in Basseterre — Graph

°F

Basseterre temperature yesterday

Maximum temperature yesterday: 84 °F (at 12:00 PM)
Minimum temperature yesterday: 73 °F (at 6:00 AM)
Average temperature yesterday: 79 °F

Past Weeks' High & Low Weather Summary

 TemperatureHumidityPressure
High86 °F (Feb 21, 1:00 PM)94% (Feb 22, 11:00 AM)30.15 "Hg (Feb 22, 11:00 AM)
Low73 °F (Feb 22, 7:00 AM)51% (Mar 2, 12:00 PM)28.20 "Hg (Mar 3, 11:00 AM)
Average80 °F70%30.05 "Hg
* Reported Feb 20 6:00 AM — Mar 6 11:00 PM, Basseterre, Weather by CustomWeather, © 2015

Note: Actual official high and low records may vary slightly from our data, if they occured in-between our weather recording intervals... More about our weather records

Advertising

Basseterre weather history for previous 24 hours

 ConditionsComfort  
Time TempWeatherWind HumidityBarometerVisibility
11:00 PM
Fri, Mar 6
77 °FPassing clouds.17 mph74%30.09 "HgN/A
10:00 PM77 °FPassing clouds.18 mph69%30.09 "HgN/A
9:00 PM77 °FPassing clouds.17 mph74%30.09 "HgN/A
8:00 PM77 °FPassing clouds.14 mph69%30.07 "HgN/A
7:00 PM77 °FPassing clouds.15 mph69%30.07 "HgN/A
6:00 PM77 °FPassing clouds.17 mph69%30.04 "HgN/A
5:00 PM81 °FPassing clouds.21 mph62%30.04 "HgN/A
4:00 PM82 °FPassing clouds.18 mph58%30.04 "HgN/A
3:00 PM81 °FPassing clouds.20 mph62%30.04 "HgN/A
2:00 PM84 °FScattered showers. Passing clouds.20 mph58%30.07 "HgN/A
1:00 PM84 °FPassing clouds.20 mph55%30.09 "HgN/A
12:00 PM84 °FPassing clouds.15 mph58%30.12 "HgN/A
11:00 AM82 °FPassing clouds.20 mph62%30.12 "HgN/A
10:00 AM81 °FSprinkles. Scattered clouds.20 mph66%30.12 "HgN/A
9:00 AM82 °FPassing clouds.14 mph58%30.12 "HgN/A
8:00 AM79 °FPassing clouds.17 mph65%30.09 "HgN/A
7:00 AM73 °FSprinkles. Partly sunny.13 mph89%30.09 "HgN/A
6:00 AM73 °FSprinkles. Passing clouds.15 mph83%30.07 "HgN/A
Weather by CustomWeather, © 2015

See weather overviewHow to use our weather pages